Location: Newark
(11.2914°S, 14.4718°E)
Time: 16:02:51
(UTC+00:00)

deb Explorer IX - Visible Passes

Search period start: 22 September 2019 00:00
Search period end: 02 October 2019 00:00
Orbit: 544 x 1107 km, 38.8° (Epoch: 20 September)

Date Brightness Start Highest point End Pass type
(mag) Time Alt. Az. Time Alt. Az. Time Alt. Az.
22 Sep ? 17:54:44 10° SW 18:01:53 54° SE 18:06:02 25° ENE visible
22 Sep ? 19:42:46 10° WSW 19:47:29 31° WNW 19:47:29 31° WNW visible
23 Sep ? 17:32:41 10° SW 17:39:48 56° SE 17:46:02 14° ENE visible
23 Sep ? 19:20:43 10° WSW 19:27:14 34° NW 19:27:28 34° NW visible
24 Sep ? 17:10:40 10° SW 17:17:44 57° SE 17:24:54 10° ENE visible
24 Sep ? 18:58:41 10° WSW 19:05:10 34° NW 19:07:33 27° N visible
25 Sep ? 18:36:42 10° WSW 18:43:06 33° NW 18:47:41 17° N visible
26 Sep ? 18:14:44 10° WSW 18:21:03 32° NW 18:27:21 10° NNE visible
27 Sep ? 17:52:47 10° WSW 17:58:59 31° NW 18:05:17 10° NNE visible
28 Sep ? 17:30:52 10° W 17:36:56 30° NW 17:43:12 10° NNE visible
29 Sep ? 17:08:59 10° W 17:14:54 29° NW 17:21:05 10° NNE visible
30 Sep ? 04:13:11 10° N 04:15:34 15° NE 04:17:55 10° ENE visible
01 Oct ? 03:51:09 10° N 03:53:47 16° NE 03:56:19 10° E visible
